STARLINK-33940, 63831

Orbit data source: Space-Track

STARLINK-33940, 63831 is a payload satellite owned by SpaceX/Seattle (US) in LEO that was launched on Sun, 04 May 2025 UTC via an FALCON 9 launch vehicle from the Air Force Eastern Test Range (AFETR). Payload-class satellites include a variety of spacecraft equipped with specific instruments for various scientific and technological missions. These include communications satellites like Starlink; space stations such as the ISS; scientific satellites like the Hubble; Earth observation satellites from companies like Planet Labs, Umbra, and HawkEye 360; GPS; miniature CubeSats for education and research; and military/defense satellites.

Loading next visibility...
Identifier
63831, 2025-092AD
Orbit
LEO
Country
Flag of USUS
Related business
Manufacturer
SpaceX/Seattle
Mission
Operational Commercial Communications
Bus & Motor
STARLINK V2MO, Unknown motor
Mass
575 kg wet, ~530 kg dry
Launch date (UTC)
2025-05-04 (6 months ago)
Launch vehicle
FALCON 9
Launch site
Air Force Eastern Test Range (AFETR)
Object type
Payload
Rocket body
Debris
Shape & HBR
Box + 2 Pan, 17.7 m
Radar Cross Section
36.964 m², Large (>1 m²)

Expand to show TLE details & history
Last TLE update: 16 hours ago

TLE from 16 hours ago
0 STARLINK-33940
1 63831U 25092AD  25309.58335024  .00040858  00000-0  14850-2 0  9993
2 63831  42.9960 153.4751 0000814 269.0951  90.9807 15.27603441 29685
Epoch: 2025-11-05T14:00Z
TLE epoch observation values (Epoch: 2025-11-05T14:00:01.460Z)
Latitude
-0.00005°
Longitude
-101.58497°
Altitude
482.763 km
Speed
7.626 km/s
True Right ascension
10h 13m 54s
True Declination
0° 00' 00"
Sunlit
Object was in daylight at epoch
Visualization orbit readout
Latitude
Unknown
Longitude
Unknown
Altitude
Unknown
Speed
Unknown
Apparent Right ascension
Unknown
Apparent Declination
Unknown
Sunlit
N/A
Visualization observer readout
Local Sidereal Time
02:12:42
Azimuth
Unknown
Elevation
Unknown
Doppler factor
Unknown
Orbital elements
Apogee altitude
485.483 km
Perigee altitude
484.366 km
Semi-major axis
6,863.062 km
Eccentricity
0.00008
Inclination
42.996°
RAAN
153.4751°
Arg. of periapsis
269.0951°
True anomaly
90.99003°
Mean anomaly
90.9807°
Eccentric anomaly
90.98536°
Mean motion
3.81739 °/min
Orbital period
94.31 mins
BSTAR
0.001485
Loading maneuver chart data...
Computing Atmospheric mass density...
Loading historical data...
Loading historical data...
Loading historical data...
Loading historical data...
Loading historical data...
Loading historical data...
Loading historical data...

Documentation

Showing up to 5 results
|